User: anonymous   Login
Location: Unspecified
(0.0000°N, 0.0000°E)
Time: 10:18:17
(UTC+00:00)
Language:

Kosmos-2004 - Orbit

View from above orbital plane
View from above orbital plane
View from above satellite
View from above satellite

Ground track
Ground track

The orbit data is extracted from the following two-line orbital elements,

1 19826U 89017A   17294.95623941 +.00000032 +00000-0 +18847-4 0  9990
2 19826 082.9499 090.7369 0030813 030.5960 080.1941 13.72244188435039
Epoch (UTC): 21 October 2017 22:56:59
Eccentricity: 0.0030813
inclination: 82.9499°
perigee height: 969 km
apogee height: 1014 km
right ascension of ascending node: 90.7369°
argument of perigee: 30.5960°
revolutions per day: 13.72244188
mean anomaly at epoch: 80.1941°
orbit number at epoch: 43503

The dashed part of the orbit path shows where the satellite is in the earth's shadow,  

DLR